Time,TemperatureF,DewpointF,PressureIn,WindDirection,WindDirectionDegrees,WindSpeedMPH,WindSpeedGustMPH,Humidity,HourlyPrecipIn,Conditions,Clouds,dailyrainin,SoftwareType,DateUTC
2013-05-26 00:02:00,54.1,48.4,30.29,North,355,0.0,0.0,81,0.00,CLR,,0.00,WeatherDisplay:10.37,2013-05-26 05:02:00,
2013-05-26 00:07:00,53.9,48.5,30.29,North,355,0.0,0.0,82,0.00,CLR,,0.00,WeatherDisplay:10.37,2013-05-26 05:07:00,
2013-05-26 00:12:00,53.8,48.8,30.29,North,355,0.0,0.0,83,0.00,CLR,,0.00,WeatherDisplay:10.37,2013-05-26 05:12:00,
2013-05-26 00:17:00,53.6,48.6,30.29,North,355,0.0,0.0,83,0.00,CLR,,0.00,WeatherDisplay:10.37,2013-05-26 05:17:00,
2013-05-26 00:22:00,53.5,48.8,30.29,North,355,0.0,0.0,84,0.00,CLR,,0.00,WeatherDisplay:10.37,2013-05-26 05:22:00,
2013-05-26 00:27:00,53.3,48.6,30.28,North,355,0.0,0.0,84,0.00,CLR,,0.00,WeatherDisplay:10.37,2013-05-26 05:27:00,
2013-05-26 00:32:00,53.2,48.5,30.29,North,355,0.0,0.0,84,0.00,CLR,,0.00,WeatherDisplay:10.37,2013-05-26 05:32:00,
2013-05-26 00:37:00,53.2,48.8,30.28,North,355,0.0,0.0,85,0.00,CLR,,0.00,WeatherDisplay:10.37,2013-05-26 05:37:00,
2013-05-26 00:42:00,53.1,49.0,30.28,North,355,0.0,0.0,86,0.00,CLR,,0.00,WeatherDisplay:10.37,2013-05-26 05:42:00,
2013-05-26 00:47:00,52.9,48.8,30.28,North,355,0.0,0.0,86,0.00,CLR,,0.00,WeatherDisplay:10.37,2013-05-26 05:47:00,
2013-05-26 00:52:00,52.9,48.8,30.28,North,355,0.0,0.0,86,0.00,CLR,,0.00,WeatherDisplay:10.37,2013-05-26 05:52:00,
2013-05-26 00:57:00,52.8,48.7,30.28,North,355,0.0,0.0,86,0.00,CLR,,0.00,WeatherDisplay:10.37,2013-05-26 05:57:00,
2013-05-26 01:02:00,52.8,48.7,30.28,North,355,0.0,0.0,86,0.00,CLR,,0.00,WeatherDisplay:10.37,2013-05-26 06:02:00,
2013-05-26 01:07:00,52.6,48.5,30.28,North,355,0.0,0.0,86,0.00,CLR,,0.00,WeatherDisplay:10.37,2013-05-26 06:07:00,
2013-05-26 01:12:00,52.6,48.8,30.28,North,355,0.0,0.0,87,0.00,CLR,,0.00,WeatherDisplay:10.37,2013-05-26 06:12:00,
2013-05-26 01:17:00,52.5,48.7,30.28,North,355,0.0,0.0,87,0.00,CLR,,0.00,WeatherDisplay:10.37,2013-05-26 06:17:00,
2013-05-26 01:22:00,52.3,48.5,30.28,North,355,0.0,0.0,87,0.00,CLR,,0.00,WeatherDisplay:10.37,2013-05-26 06:22:00,
2013-05-26 01:27:00,52.2,48.4,30.28,North,355,0.0,0.0,87,0.00,CLR,,0.00,WeatherDisplay:10.37,2013-05-26 06:27:00,
2013-05-26 01:32:00,52.0,48.6,30.29,North,355,0.0,0.0,88,0.00,CLR,,0.00,WeatherDisplay:10.37,2013-05-26 06:32:00,
2013-05-26 01:37:00,51.9,48.5,30.29,North,355,0.0,0.0,88,0.00,CLR,,0.00,WeatherDisplay:10.37,2013-05-26 06:37:00,
2013-05-26 01:42:00,51.7,48.3,30.29,North,355,0.0,0.0,88,0.00,CLR,,0.00,WeatherDisplay:10.37,2013-05-26 06:42:00,
2013-05-26 01:47:00,51.7,48.6,30.29,North,355,0.0,0.0,89,0.00,CLR,,0.00,WeatherDisplay:10.37,2013-05-26 06:47:00,
2013-05-26 01:52:00,51.6,48.5,30.29,North,355,0.0,0.0,89,0.00,CLR,,0.00,WeatherDisplay:10.37,2013-05-26 06:52:00,
2013-05-26 01:57:00,51.6,48.5,30.29,North,355,0.0,0.0,89,0.00,CLR,,0.00,WeatherDisplay:10.37,2013-05-26 06:57:00,
2013-05-26 02:02:00,51.4,48.3,30.28,North,355,0.0,0.0,89,0.00,CLR,,0.00,WeatherDisplay:10.37,2013-05-26 07:02:00,
2013-05-26 02:07:00,51.3,48.2,30.28,North,355,0.0,0.0,89,0.00,CLR,,0.00,WeatherDisplay:10.37,2013-05-26 07:07:00,
2013-05-26 02:12:00,51.1,48.0,30.28,North,355,0.0,0.0,89,0.00,CLR,,0.00,WeatherDisplay:10.37,2013-05-26 07:12:00,
2013-05-26 02:17:00,51.0,47.9,30.29,North,355,0.0,0.0,89,0.00,CLR,,0.00,WeatherDisplay:10.37,2013-05-26 07:17:00,
2013-05-26 02:22:00,50.8,47.7,30.29,North,355,0.0,0.0,89,0.00,CLR,,0.00,WeatherDisplay:10.37,2013-05-26 07:22:00,
2013-05-26 02:27:00,50.7,47.9,30.29,North,355,0.0,0.0,90,0.00,CLR,,0.00,WeatherDisplay:10.37,2013-05-26 07:27:00,
2013-05-26 02:32:00,50.7,47.9,30.29,North,355,0.0,0.0,90,0.00,CLR,,0.00,WeatherDisplay:10.37,2013-05-26 07:32:00,
2013-05-26 02:37:00,50.5,48.0,30.29,North,355,0.0,0.0,91,0.00,CLR,,0.00,WeatherDisplay:10.37,2013-05-26 07:37:00,
2013-05-26 02:42:00,50.5,48.0,30.29,North,355,0.0,0.0,91,0.00,CLR,,0.00,WeatherDisplay:10.37,2013-05-26 07:42:00,
2013-05-26 02:47:00,50.4,47.9,30.29,North,355,0.0,0.0,91,0.00,CLR,,0.00,WeatherDisplay:10.37,2013-05-26 07:47:00,
2013-05-26 02:52:00,50.2,47.7,30.29,North,355,0.0,0.0,91,0.00,CLR,,0.00,WeatherDisplay:10.37,2013-05-26 07:52:00,
2013-05-26 02:57:00,50.2,47.7,30.29,North,355,0.0,0.0,91,0.00,CLR,,0.00,WeatherDisplay:10.37,2013-05-26 07:57:00,
2013-05-26 03:02:00,50.1,47.6,30.29,North,355,0.0,0.0,91,0.00,CLR,,0.00,WeatherDisplay:10.37,2013-05-26 08:02:00,
2013-05-26 03:07:00,50.1,47.9,30.29,North,355,0.0,0.0,92,0.00,CLR,,0.00,WeatherDisplay:10.37,2013-05-26 08:07:00,
2013-05-26 03:12:00,49.9,47.4,30.29,North,355,0.0,0.0,91,0.00,CLR,,0.00,WeatherDisplay:10.37,2013-05-26 08:12:00,
2013-05-26 03:17:00,49.9,47.7,30.29,North,355,0.0,0.0,92,0.00,CLR,,0.00,WeatherDisplay:10.37,2013-05-26 08:17:00,
2013-05-26 03:22:00,49.8,47.6,30.30,North,355,0.0,0.0,92,0.00,CLR,,0.00,WeatherDisplay:10.37,2013-05-26 08:22:00,
2013-05-26 03:27:00,49.8,47.6,30.30,North,355,0.0,0.0,92,0.00,CLR,,0.00,WeatherDisplay:10.37,2013-05-26 08:27:00,
2013-05-26 03:32:00,49.8,47.6,30.30,North,355,0.0,0.0,92,0.00,CLR,,0.00,WeatherDisplay:10.37,2013-05-26 08:32:00,
2013-05-26 03:37:00,49.6,47.4,30.30,North,355,0.0,0.0,92,0.00,CLR,,0.00,WeatherDisplay:10.37,2013-05-26 08:37:00,
2013-05-26 03:42:00,49.5,47.3,30.31,North,355,0.0,0.0,92,0.00,CLR,,0.00,WeatherDisplay:10.37,2013-05-26 08:42:00,
2013-05-26 03:47:00,49.5,47.3,30.31,North,355,0.0,0.0,92,0.00,CLR,,0.00,WeatherDisplay:10.37,2013-05-26 08:47:00,
2013-05-26 03:52:00,49.5,47.3,30.31,North,355,0.0,0.0,92,0.00,CLR,,0.00,WeatherDisplay:10.37,2013-05-26 08:52:00,
2013-05-26 03:57:00,49.4,47.2,30.31,North,355,0.0,0.0,92,0.00,CLR,,0.00,WeatherDisplay:10.37,2013-05-26 08:57:00,
2013-05-26 04:02:00,49.2,47.0,30.31,North,355,0.0,0.0,92,0.00,CLR,,0.00,WeatherDisplay:10.37,2013-05-26 09:02:00,
2013-05-26 04:07:00,49.2,47.0,30.32,North,355,0.0,0.0,92,0.00,CLR,,0.00,WeatherDisplay:10.37,2013-05-26 09:07:00,
2013-05-26 04:12:00,49.1,46.9,30.32,North,355,0.0,0.0,92,0.00,CLR,,0.00,WeatherDisplay:10.37,2013-05-26 09:12:00,
2013-05-26 04:17:00,48.9,46.7,30.31,North,355,0.0,0.0,92,0.00,CLR,,0.00,WeatherDisplay:10.37,2013-05-26 09:17:00,
2013-05-26 04:22:00,48.9,47.0,30.32,North,355,0.0,0.0,93,0.00,CLR,,0.00,WeatherDisplay:10.37,2013-05-26 09:22:00,
2013-05-26 04:27:00,48.8,46.9,30.32,North,355,0.0,0.0,93,0.00,CLR,,0.00,WeatherDisplay:10.37,2013-05-26 09:27:00,
2013-05-26 04:32:00,48.8,46.9,30.32,North,355,0.0,0.0,93,0.00,CLR,,0.00,WeatherDisplay:10.37,2013-05-26 09:32:00,
2013-05-26 04:37:00,48.6,46.7,30.32,North,355,0.0,0.0,93,0.00,CLR,,0.00,WeatherDisplay:10.37,2013-05-26 09:37:00,
2013-05-26 04:42:00,48.6,46.7,30.32,North,355,0.0,0.0,93,0.00,CLR,,0.00,WeatherDisplay:10.37,2013-05-26 09:42:00,
2013-05-26 04:47:00,48.6,46.7,30.33,North,355,0.0,0.0,93,0.00,CLR,,0.00,WeatherDisplay:10.37,2013-05-26 09:47:00,
2013-05-26 04:52:00,48.6,46.7,30.33,North,355,0.0,0.0,93,0.00,CLR,,0.00,WeatherDisplay:10.37,2013-05-26 09:52:00,
2013-05-26 04:57:00,48.8,46.9,30.34,North,355,0.0,0.0,93,0.00,CLR,,0.00,WeatherDisplay:10.37,2013-05-26 09:57:00,
2013-05-26 05:02:00,48.9,47.2,30.34,North,355,0.0,0.0,94,0.00,CLR,,0.00,WeatherDisplay:10.37,2013-05-26 10:02:00,
2013-05-26 05:07:00,49.1,47.4,30.34,North,355,0.0,0.0,94,0.00,CLR,,0.00,WeatherDisplay:10.37,2013-05-26 10:07:00,
2013-05-26 05:12:00,49.2,47.5,30.34,North,355,0.0,0.0,94,0.00,CLR,,0.00,WeatherDisplay:10.37,2013-05-26 10:12:00,
2013-05-26 05:17:00,49.4,47.7,30.34,North,355,0.0,0.0,94,0.00,CLR,,0.00,WeatherDisplay:10.37,2013-05-26 10:17:00,
2013-05-26 05:22:00,49.5,47.8,30.34,North,355,0.0,0.0,94,0.00,CLR,,0.00,WeatherDisplay:10.37,2013-05-26 10:22:00,
2013-05-26 05:27:00,49.6,47.9,30.34,North,355,0.0,0.0,94,0.00,CLR,,0.00,WeatherDisplay:10.37,2013-05-26 10:27:00,
2013-05-26 05:32:00,49.6,47.9,30.35,North,355,0.0,0.0,94,0.00,CLR,,0.00,WeatherDisplay:10.37,2013-05-26 10:32:00,
2013-05-26 05:37:00,49.6,47.7,30.35,North,355,0.0,0.0,93,0.00,CLR,,0.00,WeatherDisplay:10.37,2013-05-26 10:37:00,
2013-05-26 05:42:00,49.6,47.7,30.35,North,355,0.0,0.0,93,0.00,CLR,,0.00,WeatherDisplay:10.37,2013-05-26 10:42:00,
2013-05-26 05:47:00,49.6,47.7,30.35,North,355,0.0,0.0,93,0.00,CLR,,0.00,WeatherDisplay:10.37,2013-05-26 10:47:00,
2013-05-26 05:52:00,49.6,47.7,30.35,North,355,0.0,0.0,93,0.00,CLR,,0.00,WeatherDisplay:10.37,2013-05-26 10:52:00,
2013-05-26 05:57:00,49.6,47.7,30.36,North,355,0.0,0.0,93,0.00,CLR,,0.00,WeatherDisplay:10.37,2013-05-26 10:57:00,
2013-05-26 06:02:00,49.6,47.7,30.36,North,355,0.0,0.0,93,0.00,CLR,,0.00,WeatherDisplay:10.37,2013-05-26 11:02:00,
2013-05-26 06:07:00,49.8,47.9,30.36,North,355,0.0,0.0,93,0.00,CLR,,0.00,WeatherDisplay:10.37,2013-05-26 11:07:00,
2013-05-26 06:12:00,49.9,48.0,30.36,North,355,0.0,0.0,93,0.00,CLR,,0.00,WeatherDisplay:10.37,2013-05-26 11:12:00,
2013-05-26 06:17:00,50.1,48.2,30.36,North,355,0.0,0.0,93,0.00,CLR,,0.00,WeatherDisplay:10.37,2013-05-26 11:17:00,
2013-05-26 06:22:00,50.4,48.5,30.37,North,355,1.1,0.0,93,0.00,CLR,,0.00,WeatherDisplay:10.37,2013-05-26 11:22:00,
2013-05-26 06:27:00,50.7,48.7,30.37,NNE,29,1.1,0.0,93,0.00,CLR,,0.00,WeatherDisplay:10.37,2013-05-26 11:27:00,
2013-05-26 06:32:00,51.0,48.8,30.36,NNE,22,0.0,0.0,92,0.00,CLR,,0.00,WeatherDisplay:10.37,2013-05-26 11:32:00,
2013-05-26 06:37:00,51.1,48.9,30.36,NNE,22,0.0,0.0,92,0.00,CLR,,0.00,WeatherDisplay:10.37,2013-05-26 11:37:00,
2013-05-26 06:42:00,51.4,48.9,30.36,NNE,22,0.0,0.0,91,0.00,CLR,,0.00,WeatherDisplay:10.37,2013-05-26 11:42:00,
2013-05-26 06:47:00,51.9,49.4,30.36,NNE,22,0.0,0.0,91,0.00,CLR,,0.00,WeatherDisplay:10.37,2013-05-26 11:47:00,
2013-05-26 06:52:00,52.3,49.2,30.36,NNE,22,0.0,0.0,89,0.00,CLR,,0.00,WeatherDisplay:10.37,2013-05-26 11:52:00,
2013-05-26 06:57:00,52.9,49.7,30.36,NNE,22,0.0,0.0,89,0.00,CLR,,0.00,WeatherDisplay:10.37,2013-05-26 11:57:00,
2013-05-26 07:02:00,53.8,49.7,30.36,NNE,22,0.0,0.0,86,0.00,CLR,,0.00,WeatherDisplay:10.37,2013-05-26 12:02:00,
2013-05-26 07:07:00,55.0,50.3,30.36,NNE,22,0.0,0.0,84,0.00,CLR,,0.00,WeatherDisplay:10.37,2013-05-26 12:07:00,
2013-05-26 07:12:00,55.9,49.8,30.36,NNE,22,0.0,0.0,80,0.00,CLR,,0.00,WeatherDisplay:10.37,2013-05-26 12:12:00,
2013-05-26 07:17:00,56.9,50.8,30.36,NNE,22,0.0,0.0,80,0.00,CLR,,0.00,WeatherDisplay:10.37,2013-05-26 12:17:00,
2013-05-26 07:22:00,57.8,49.9,30.36,NNE,22,1.1,0.0,75,0.00,CLR,,0.00,WeatherDisplay:10.37,2013-05-26 12:22:00,
2013-05-26 07:27:00,58.4,49.8,30.36,NNE,22,0.0,0.0,73,0.00,CLR,,0.00,WeatherDisplay:10.37,2013-05-26 12:27:00,
2013-05-26 07:32:00,59.3,49.9,30.35,NNE,22,1.1,0.0,71,0.00,CLR,,0.00,WeatherDisplay:10.37,2013-05-26 12:32:00,
2013-05-26 07:37:00,59.8,50.0,30.35,NNE,22,0.0,0.0,70,0.00,CLR,,0.00,WeatherDisplay:10.37,2013-05-26 12:37:00,
2013-05-26 07:42:00,60.5,50.7,30.35,NNE,22,0.0,0.0,70,0.00,CLR,,0.00,WeatherDisplay:10.37,2013-05-26 12:42:00,
2013-05-26 07:47:00,61.3,50.6,30.35,NNE,22,0.0,0.0,68,0.00,CLR,,0.00,WeatherDisplay:10.37,2013-05-26 12:47:00,
2013-05-26 07:52:00,61.8,50.7,30.35,NNE,22,0.0,0.0,67,0.00,CLR,,0.00,WeatherDisplay:10.37,2013-05-26 12:52:00,
2013-05-26 07:57:00,62.3,50.4,30.35,NNE,23,1.1,0.0,65,0.00,CLR,,0.00,WeatherDisplay:10.37,2013-05-26 12:57:00,
2013-05-26 08:02:00,62.3,50.8,30.35,ENE,57,1.1,1.1,66,0.00,CLR,,0.00,WeatherDisplay:10.37,2013-05-26 13:02:00,
2013-05-26 08:07:00,62.6,49.8,30.35,ENE,57,1.1,0.0,63,0.00,CLR,,0.00,WeatherDisplay:10.37,2013-05-26 13:07:00,
2013-05-26 08:12:00,62.7,49.9,30.35,ENE,59,0.0,0.0,63,0.00,CLR,,0.00,WeatherDisplay:10.37,2013-05-26 13:12:00,
2013-05-26 08:17:00,62.6,50.2,30.35,ENE,59,0.0,0.0,64,0.00,CLR,,0.00,WeatherDisplay:10.37,2013-05-26 13:17:00,
2013-05-26 08:22:00,63.4,50.1,30.35,ENE,59,1.1,0.0,62,0.00,CLR,,0.00,WeatherDisplay:10.37,2013-05-26 13:22:00,
2013-05-26 08:27:00,64.3,51.4,30.35,ENE,59,0.0,0.0,63,0.00,CLR,,0.00,WeatherDisplay:10.37,2013-05-26 13:27:00,
2013-05-26 08:32:00,65.2,51.8,30.35,ENE,59,0.0,0.0,62,0.00,CLR,,0.00,WeatherDisplay:10.37,2013-05-26 13:32:00,
2013-05-26 08:37:00,65.5,51.2,30.35,ENE,59,0.0,0.0,60,0.00,CLR,,0.00,WeatherDisplay:10.37,2013-05-26 13:37:00,
2013-05-26 08:43:00,65.8,52.0,30.35,ENE,59,0.0,0.0,61,0.00,CLR,,0.00,WeatherDisplay:10.37,2013-05-26 13:43:00,
2013-05-26 08:48:00,66.1,50.9,30.35,ENE,59,1.1,1.1,58,0.00,CLR,,0.00,WeatherDisplay:10.37,2013-05-26 13:48:00,
2013-05-26 08:53:00,66.3,52.0,30.35,ENE,59,1.1,0.0,60,0.00,CLR,,0.00,WeatherDisplay:10.37,2013-05-26 13:53:00,
2013-05-26 08:58:00,66.8,50.1,30.35,East,100,1.1,1.1,55,0.00,CLR,,0.00,WeatherDisplay:10.37,2013-05-26 13:58:00,
2013-05-26 09:03:00,67.1,49.9,30.35,East,98,1.1,1.1,54,0.00,CLR,,0.00,WeatherDisplay:10.37,2013-05-26 14:03:00,
2013-05-26 09:08:00,67.3,51.1,30.35,East,98,1.1,0.0,56,0.00,CLR,,0.00,WeatherDisplay:10.37,2013-05-26 14:08:00,
2013-05-26 09:13:00,67.8,51.5,30.35,East,97,0.0,0.2,56,0.00,CLR,,0.00,WeatherDisplay:10.37,2013-05-26 14:13:00,
2013-05-26 09:18:00,68.4,50.6,30.35,ENE,78,2.3,2.3,53,0.00,CLR,,0.00,WeatherDisplay:10.37,2013-05-26 14:18:00,
2013-05-26 09:23:00,68.9,49.5,30.35,ENE,78,0.0,0.0,50,0.00,CLR,,0.00,WeatherDisplay:10.37,2013-05-26 14:23:00,
2013-05-26 09:28:00,69.6,51.2,30.34,ENE,78,1.1,0.0,52,0.00,CLR,,0.00,WeatherDisplay:10.37,2013-05-26 14:28:00,
2013-05-26 09:33:00,69.9,47.0,30.34,ENE,71,3.5,3.5,44,0.00,CLR,,0.00,WeatherDisplay:10.37,2013-05-26 14:33:00,
2013-05-26 09:38:00,70.4,50.9,30.34,ENE,71,0.0,0.0,50,0.00,CLR,,0.00,WeatherDisplay:10.37,2013-05-26 14:38:00,
2013-05-26 09:43:00,70.9,50.2,30.34,ENE,65,0.0,0.0,48,0.00,CLR,,0.00,WeatherDisplay:10.37,2013-05-26 14:43:00,
2013-05-26 09:48:00,71.5,46.6,30.34,NNE,25,0.0,0.0,41,0.00,CLR,,0.00,WeatherDisplay:10.37,2013-05-26 14:48:00,
2013-05-26 09:53:00,72.0,50.1,30.35,NNE,13,0.0,0.0,46,0.00,CLR,,0.00,WeatherDisplay:10.37,2013-05-26 14:53:00,
2013-05-26 09:58:00,72.7,51.3,30.35,North,9,1.1,1.1,47,0.00,CLR,,0.00,WeatherDisplay:10.37,2013-05-26 14:58:00,
2013-05-26 10:03:00,72.8,51.4,30.34,NNW,344,1.1,0.0,47,0.00,CLR,,0.00,WeatherDisplay:10.37,2013-05-26 15:03:00,
2013-05-26 10:08:00,72.5,51.1,30.34,SW,235,0.0,0.0,47,0.00,CLR,,0.00,WeatherDisplay:10.37,2013-05-26 15:08:00,
2013-05-26 10:13:00,72.5,49.9,30.34,SE,145,2.3,2.3,45,0.00,CLR,,0.00,WeatherDisplay:10.37,2013-05-26 15:13:00,
2013-05-26 10:18:00,72.7,50.1,30.34,SW,231,2.3,2.3,45,0.00,CLR,,0.00,WeatherDisplay:10.37,2013-05-26 15:18:00,
2013-05-26 10:23:00,72.8,51.4,30.34,SW,229,1.1,0.0,47,0.00,CLR,,0.00,WeatherDisplay:10.37,2013-05-26 15:23:00,
2013-05-26 10:28:00,72.5,51.1,30.34,South,181,1.1,0.0,47,0.00,CLR,,0.00,WeatherDisplay:10.37,2013-05-26 15:28:00,
2013-05-26 10:33:00,72.7,52.4,30.35,SSW,203,1.1,0.0,49,0.00,CLR,,0.00,WeatherDisplay:10.37,2013-05-26 15:33:00,
2013-05-26 10:38:00,73.3,51.8,30.35,WSW,251,1.1,1.1,47,0.00,CLR,,0.00,WeatherDisplay:10.37,2013-05-26 15:38:00,
2013-05-26 10:43:00,74.0,53.6,30.35,WSW,252,0.0,0.0,49,0.00,CLR,,0.00,WeatherDisplay:10.37,2013-05-26 15:43:00,
2013-05-26 10:48:00,74.9,52.7,30.35,ESE,109,0.0,0.0,46,0.00,CLR,,0.00,WeatherDisplay:10.37,2013-05-26 15:48:00,
2013-05-26 10:53:00,75.4,52.0,30.35,ESE,105,1.1,0.0,44,0.00,CLR,,0.00,WeatherDisplay:10.37,2013-05-26 15:53:00,
2013-05-26 10:58:00,75.8,52.3,30.35,ENE,76,2.3,2.3,44,0.00,CLR,,0.00,WeatherDisplay:10.37,2013-05-26 15:58:00,
2013-05-26 11:03:00,76.0,53.1,30.34,WNW,300,1.1,1.1,45,0.00,CLR,,0.00,WeatherDisplay:10.37,2013-05-26 16:03:00,
2013-05-26 11:08:00,76.1,56.1,30.34,SW,216,3.5,3.5,50,0.00,CLR,,0.00,WeatherDisplay:10.37,2013-05-26 16:08:00,
2013-05-26 11:13:00,76.5,55.3,30.34,SSW,205,1.1,1.1,48,0.00,CLR,,0.00,WeatherDisplay:10.37,2013-05-26 16:13:00,
2013-05-26 11:18:00,76.8,55.0,30.34,WSW,242,1.1,1.1,47,0.00,CLR,,0.00,WeatherDisplay:10.37,2013-05-26 16:18:00,
2013-05-26 11:23:00,77.0,54.6,30.34,ENE,73,1.1,1.1,46,0.00,CLR,,0.00,WeatherDisplay:10.37,2013-05-26 16:23:00,
2013-05-26 11:28:00,77.2,54.2,30.34,NNE,27,0.0,0.0,45,0.00,CLR,,0.00,WeatherDisplay:10.37,2013-05-26 16:28:00,
2013-05-26 11:33:00,77.0,50.1,30.34,ESE,123,1.1,1.1,39,0.00,CLR,,0.00,WeatherDisplay:10.37,2013-05-26 16:33:00,
2013-05-26 11:38:00,77.0,52.8,30.33,SSW,210,1.1,1.1,43,0.00,CLR,,0.00,WeatherDisplay:10.37,2013-05-26 16:38:00,
2013-05-26 11:43:00,77.4,52.5,30.33,NE,44,1.1,1.1,42,0.00,CLR,,0.00,WeatherDisplay:10.37,2013-05-26 16:43:00,
2013-05-26 11:48:00,77.7,56.4,30.33,NE,43,0.0,0.0,48,0.00,CLR,,0.00,WeatherDisplay:10.37,2013-05-26 16:48:00,
2013-05-26 11:53:00,77.9,52.3,30.33,ENE,63,3.5,3.5,41,0.00,CLR,,0.00,WeatherDisplay:10.37,2013-05-26 16:53:00,
2013-05-26 11:58:00,78.1,53.8,30.33,SE,144,0.0,0.0,43,0.00,CLR,,0.00,WeatherDisplay:10.37,2013-05-26 16:58:00,
2013-05-26 12:03:00,78.5,51.5,30.32,ENE,76,1.1,1.1,39,0.00,CLR,,0.00,WeatherDisplay:10.37,2013-05-26 17:03:00,
2013-05-26 12:08:00,78.5,52.8,30.32,ENE,62,3.5,3.5,41,0.00,CLR,,0.00,WeatherDisplay:10.37,2013-05-26 17:08:00,
2013-05-26 12:13:00,78.5,50.1,30.32,SSE,161,1.1,1.1,37,0.00,CLR,,0.00,WeatherDisplay:10.37,2013-05-26 17:13:00,
2013-05-26 12:18:00,78.8,52.4,30.32,SW,225,1.1,1.1,40,0.00,CLR,,0.00,WeatherDisplay:10.37,2013-05-26 17:18:00,
2013-05-26 12:23:00,79.0,53.3,30.32,SW,225,1.1,0.0,41,0.00,CLR,,0.00,WeatherDisplay:10.37,2013-05-26 17:23:00,
2013-05-26 12:28:00,79.2,53.5,30.32,SW,232,1.1,0.0,41,0.00,CLR,,0.00,WeatherDisplay:10.37,2013-05-26 17:28:00,
2013-05-26 12:33:00,79.6,57.0,30.32,ENE,63,2.3,2.3,46,0.00,CLR,,0.00,WeatherDisplay:10.37,2013-05-26 17:33:00,
2013-05-26 12:38:00,79.8,51.9,30.32,SW,226,2.3,2.3,38,0.00,CLR,,0.00,WeatherDisplay:10.37,2013-05-26 17:38:00,
2013-05-26 12:43:00,79.9,52.7,30.32,ESE,123,1.1,1.1,39,0.00,CLR,,0.00,WeatherDisplay:10.37,2013-05-26 17:43:00,
2013-05-26 12:48:00,80.3,55.1,30.32,ESE,113,3.5,3.5,42,0.00,CLR,,0.00,WeatherDisplay:10.37,2013-05-26 17:48:00,
2013-05-26 12:53:00,79.9,49.8,30.31,SE,132,0.0,0.0,35,0.00,CLR,,0.00,WeatherDisplay:10.37,2013-05-26 17:53:00,
2013-05-26 12:58:00,79.8,50.5,30.31,ENE,73,0.0,0.0,36,0.00,CLR,,0.00,WeatherDisplay:10.37,2013-05-26 17:58:00,
2013-05-26 13:03:00,80.3,50.9,30.31,NNE,22,0.0,0.0,36,0.00,CLR,,0.00,WeatherDisplay:10.37,2013-05-26 18:03:00,
2013-05-26 13:08:00,80.7,49.7,30.31,NNE,33,1.1,0.0,34,0.00,CLR,,0.00,WeatherDisplay:10.37,2013-05-26 18:08:00,
2013-05-26 13:13:00,81.1,50.9,30.30,NNW,338,2.3,2.3,35,0.00,CLR,,0.00,WeatherDisplay:10.37,2013-05-26 18:13:00,
2013-05-26 13:18:00,80.9,49.9,30.30,NW,304,0.0,0.0,34,0.00,CLR,,0.00,WeatherDisplay:10.37,2013-05-26 18:18:00,
2013-05-26 13:23:00,81.2,49.4,30.30,ESE,105,2.3,2.3,33,0.00,CLR,,0.00,WeatherDisplay:10.37,2013-05-26 18:23:00,
2013-05-26 13:28:00,80.9,46.6,30.30,SSE,161,1.1,1.1,30,0.00,CLR,,0.00,WeatherDisplay:10.37,2013-05-26 18:28:00,
2013-05-26 13:33:00,81.1,43.9,30.30,East,94,1.1,1.1,27,0.00,CLR,,0.00,WeatherDisplay:10.37,2013-05-26 18:33:00,
2013-05-26 13:38:00,81.4,44.2,30.30,South,184,3.5,3.5,27,0.00,CLR,,0.00,WeatherDisplay:10.37,2013-05-26 18:38:00,
2013-05-26 13:43:00,81.8,45.5,30.30,SW,233,1.1,1.1,28,0.00,CLR,,0.00,WeatherDisplay:10.37,2013-05-26 18:43:00,
2013-05-26 13:48:00,82.0,46.6,30.29,WSW,245,1.1,0.0,29,0.00,CLR,,0.00,WeatherDisplay:10.37,2013-05-26 18:48:00,
2013-05-26 13:53:00,82.6,46.2,30.29,SW,227,1.1,1.1,28,0.00,CLR,,0.00,WeatherDisplay:10.37,2013-05-26 18:53:00,
2013-05-26 13:58:00,82.4,48.7,30.29,SW,232,1.1,0.0,31,0.00,CLR,,0.00,WeatherDisplay:10.37,2013-05-26 18:58:00,
2013-05-26 14:03:00,82.4,45.1,30.29,ENE,61,1.1,1.1,27,0.00,CLR,,0.00,WeatherDisplay:10.37,2013-05-26 19:03:00,
2013-05-26 14:08:00,82.8,47.3,30.29,SW,229,1.1,1.1,29,0.00,CLR,,0.00,WeatherDisplay:10.37,2013-05-26 19:08:00,
2013-05-26 14:13:00,82.8,49.1,30.29,SSW,196,1.1,1.1,31,0.00,CLR,,0.00,WeatherDisplay:10.37,2013-05-26 19:13:00,
2013-05-26 14:18:00,82.8,47.3,30.28,SSW,212,1.1,1.1,29,0.00,CLR,,0.00,WeatherDisplay:10.37,2013-05-26 19:18:00,
2013-05-26 14:23:00,82.4,46.0,30.28,SE,146,0.0,0.0,28,0.00,CLR,,0.00,WeatherDisplay:10.37,2013-05-26 19:23:00,
2013-05-26 14:28:00,82.6,46.2,30.28,SW,220,1.1,0.0,28,0.00,CLR,,0.00,WeatherDisplay:10.37,2013-05-26 19:28:00,
2013-05-26 14:33:00,82.6,48.0,30.28,SSE,153,1.1,0.0,30,0.00,CLR,,0.00,WeatherDisplay:10.37,2013-05-26 19:33:00,
2013-05-26 14:38:00,82.8,48.2,30.27,NE,49,3.5,3.5,30,0.00,CLR,,0.00,WeatherDisplay:10.37,2013-05-26 19:38:00,
2013-05-26 14:43:00,83.0,50.1,30.27,NE,43,0.0,0.0,32,0.00,CLR,,0.00,WeatherDisplay:10.37,2013-05-26 19:43:00,
2013-05-26 14:48:00,83.4,48.7,30.27,WSW,238,1.1,1.1,30,0.00,CLR,,0.00,WeatherDisplay:10.37,2013-05-26 19:48:00,
2013-05-26 14:53:00,83.8,51.6,30.27,WNW,296,1.1,1.1,33,0.00,CLR,,0.00,WeatherDisplay:10.37,2013-05-26 19:53:00,
2013-05-26 14:58:00,84.0,50.1,30.27,WNW,288,4.0,4.0,31,0.00,CLR,,0.00,WeatherDisplay:10.37,2013-05-26 19:58:00,
2013-05-26 15:03:00,84.0,47.4,30.27,WSW,257,1.1,0.0,28,0.00,CLR,,0.00,WeatherDisplay:10.37,2013-05-26 20:03:00,
2013-05-26 15:08:00,84.0,47.4,30.26,North,355,3.5,3.5,28,0.00,CLR,,0.00,WeatherDisplay:10.37,2013-05-26 20:08:00,
2013-05-26 15:13:00,84.0,51.0,30.26,West,279,3.0,3.0,32,0.00,CLR,,0.00,WeatherDisplay:10.37,2013-05-26 20:13:00,
2013-05-26 15:18:00,84.1,51.1,30.26,SSW,210,1.0,0.0,32,0.00,CLR,,0.00,WeatherDisplay:10.37,2013-05-26 20:18:00,
2013-05-26 15:23:00,84.1,47.5,30.25,WSW,248,3.5,3.5,28,0.00,CLR,,0.00,WeatherDisplay:10.37,2013-05-26 20:23:00,
2013-05-26 15:28:00,84.0,47.4,30.25,SW,236,4.6,4.6,28,0.00,CLR,,0.00,WeatherDisplay:10.37,2013-05-26 20:28:00,
2013-05-26 15:33:00,83.6,47.0,30.25,WSW,245,1.1,0.0,28,0.00,CLR,,0.00,WeatherDisplay:10.37,2013-05-26 20:33:00,
2013-05-26 15:38:00,83.8,47.2,30.25,ESE,119,3.5,3.5,28,0.00,CLR,,0.00,WeatherDisplay:10.37,2013-05-26 20:38:00,
2013-05-26 15:43:00,83.6,48.0,30.25,South,171,1.1,0.0,29,0.00,CLR,,0.00,WeatherDisplay:10.37,2013-05-26 20:43:00,
2013-05-26 15:48:00,83.8,49.1,30.25,NNE,13,1.1,0.0,30,0.00,CLR,,0.00,WeatherDisplay:10.37,2013-05-26 20:48:00,
2013-05-26 15:53:00,84.0,47.4,30.25,North,5,0.0,0.0,28,0.00,CLR,,0.00,WeatherDisplay:10.37,2013-05-26 20:53:00,
2013-05-26 15:58:00,83.8,47.2,30.25,SW,229,0.0,0.0,28,0.00,CLR,,0.00,WeatherDisplay:10.37,2013-05-26 20:58:00,
2013-05-26 16:03:00,83.2,46.7,30.24,WSW,253,3.5,3.5,28,0.00,CLR,,0.00,WeatherDisplay:10.37,2013-05-26 21:03:00,
2013-05-26 16:08:00,82.6,46.2,30.24,SW,230,0.0,0.0,28,0.00,CLR,,0.00,WeatherDisplay:10.37,2013-05-26 21:08:00,
2013-05-26 16:13:00,82.4,46.9,30.24,SSW,205,2.0,2.0,29,0.00,CLR,,0.00,WeatherDisplay:10.37,2013-05-26 21:13:00,
2013-05-26 16:18:00,82.0,47.5,30.24,SSW,208,3.5,3.5,30,0.00,CLR,,0.00,WeatherDisplay:10.37,2013-05-26 21:18:00,
2013-05-26 16:23:00,81.8,48.2,30.24,South,171,1.1,0.0,31,0.00,CLR,,0.00,WeatherDisplay:10.37,2013-05-26 21:23:00,
2013-05-26 16:28:00,81.6,48.0,30.24,ESE,109,0.0,0.1,31,0.00,CLR,,0.00,WeatherDisplay:10.37,2013-05-26 21:28:00,
2013-05-26 16:33:00,81.8,47.3,30.24,ESE,111,0.0,0.1,30,0.00,CLR,,0.00,WeatherDisplay:10.37,2013-05-26 21:33:00,
2013-05-26 16:38:00,81.8,48.2,30.24,SW,234,1.0,0.0,31,0.00,CLR,,0.00,WeatherDisplay:10.37,2013-05-26 21:38:00,
2013-05-26 16:43:00,81.8,50.7,30.24,NW,316,0.0,0.0,34,0.00,CLR,,0.00,WeatherDisplay:10.37,2013-05-26 21:43:00,
2013-05-26 16:48:00,81.6,49.7,30.24,NW,315,0.0,0.0,33,0.00,CLR,,0.00,WeatherDisplay:10.37,2013-05-26 21:48:00,
2013-05-26 16:53:00,81.6,50.5,30.24,SW,222,0.0,0.0,34,0.00,CLR,,0.00,WeatherDisplay:10.37,2013-05-26 21:53:00,
2013-05-26 16:58:00,81.6,51.3,30.24,SSW,192,1.1,0.0,35,0.00,CLR,,0.00,WeatherDisplay:10.37,2013-05-26 21:58:00,
2013-05-26 17:03:00,81.4,49.5,30.24,SSW,192,0.0,0.0,33,0.00,CLR,,0.00,WeatherDisplay:10.37,2013-05-26 22:03:00,
2013-05-26 17:08:00,81.4,49.5,30.24,SSW,195,0.0,0.0,33,0.00,CLR,,0.00,WeatherDisplay:10.37,2013-05-26 22:08:00,
2013-05-26 17:13:00,81.2,50.2,30.24,West,267,1.0,1.0,34,0.00,CLR,,0.00,WeatherDisplay:10.37,2013-05-26 22:13:00,
2013-05-26 17:18:00,81.1,49.3,30.24,SW,232,1.1,0.0,33,0.00,CLR,,0.00,WeatherDisplay:10.37,2013-05-26 22:18:00,
2013-05-26 17:23:00,81.1,50.1,30.24,SW,232,0.0,0.0,34,0.00,CLR,,0.00,WeatherDisplay:10.37,2013-05-26 22:23:00,
2013-05-26 17:28:00,81.1,51.6,30.24,SW,232,0.0,0.0,36,0.00,CLR,,0.00,WeatherDisplay:10.37,2013-05-26 22:28:00,
2013-05-26 17:33:00,80.9,49.1,30.24,SW,232,1.1,0.0,33,0.00,CLR,,0.00,WeatherDisplay:10.37,2013-05-26 22:33:00,
2013-05-26 17:38:00,80.9,50.7,30.24,SW,232,0.0,0.0,35,0.00,CLR,,0.00,WeatherDisplay:10.37,2013-05-26 22:38:00,
2013-05-26 17:43:00,80.9,50.7,30.24,SW,232,0.0,0.0,35,0.00,CLR,,0.00,WeatherDisplay:10.37,2013-05-26 22:43:00,
2013-05-26 17:48:00,80.7,50.5,30.23,SW,232,0.0,0.0,35,0.00,CLR,,0.00,WeatherDisplay:10.37,2013-05-26 22:48:00,
2013-05-26 17:53:00,80.7,52.7,30.23,SW,232,0.0,0.0,38,0.00,CLR,,0.00,WeatherDisplay:10.37,2013-05-26 22:53:00,
2013-05-26 17:58:00,80.5,57.2,30.23,SW,232,0.0,0.0,45,0.00,CLR,,0.00,WeatherDisplay:10.37,2013-05-26 22:58:00,
2013-05-26 18:03:00,80.3,58.2,30.23,SW,232,0.0,0.0,47,0.00,CLR,,0.00,WeatherDisplay:10.37,2013-05-26 23:03:00,
2013-05-26 18:08:00,79.9,57.9,30.23,SW,232,0.0,0.0,47,0.00,CLR,,0.00,WeatherDisplay:10.37,2013-05-26 23:08:00,
2013-05-26 18:13:00,79.4,58.0,30.22,SW,232,0.0,0.0,48,0.00,CLR,,0.00,WeatherDisplay:10.37,2013-05-26 23:13:00,
2013-05-26 18:18:00,79.0,58.8,30.23,SW,232,0.0,0.0,50,0.00,CLR,,0.00,WeatherDisplay:10.37,2013-05-26 23:18:00,
2013-05-26 18:23:00,78.5,57.2,30.23,SW,232,0.0,0.0,48,0.00,CLR,,0.00,WeatherDisplay:10.37,2013-05-26 23:23:00,
2013-05-26 18:28:00,78.1,57.4,30.23,SW,232,0.0,0.0,49,0.00,CLR,,0.00,WeatherDisplay:10.37,2013-05-26 23:28:00,
2013-05-26 18:33:00,77.7,57.0,30.23,SW,232,0.0,0.0,49,0.00,CLR,,0.00,WeatherDisplay:10.37,2013-05-26 23:33:00,
2013-05-26 18:38:00,77.4,57.3,30.23,SW,232,0.0,0.0,50,0.00,CLR,,0.00,WeatherDisplay:10.37,2013-05-26 23:38:00,
2013-05-26 18:43:00,77.0,57.5,30.23,SW,232,0.0,0.0,51,0.00,CLR,,0.00,WeatherDisplay:10.37,2013-05-26 23:43:00,
2013-05-26 18:48:00,76.5,56.5,30.23,SW,232,0.0,0.0,50,0.00,CLR,,0.00,WeatherDisplay:10.37,2013-05-26 23:48:00,
2013-05-26 18:53:00,75.8,56.4,30.23,SW,232,0.0,0.0,51,0.00,CLR,,0.00,WeatherDisplay:10.37,2013-05-26 23:53:00,
2013-05-26 18:58:00,75.1,56.8,30.23,SW,232,0.0,0.0,53,0.00,CLR,,0.00,WeatherDisplay:10.37,2013-05-26 23:58:00,
2013-05-26 19:03:00,74.6,57.4,30.23,SW,232,0.0,0.0,55,0.00,CLR,,0.00,WeatherDisplay:10.37,2013-05-27 00:03:00,
2013-05-26 19:08:00,74.0,57.3,30.22,SW,232,0.0,0.0,56,0.00,CLR,,0.00,WeatherDisplay:10.37,2013-05-27 00:08:00,
2013-05-26 19:13:00,73.3,56.7,30.22,SW,232,0.0,0.0,56,0.00,CLR,,0.00,WeatherDisplay:10.37,2013-05-27 00:13:00,
2013-05-26 19:18:00,72.8,56.2,30.22,SW,232,0.0,0.0,56,0.00,CLR,,0.00,WeatherDisplay:10.37,2013-05-27 00:18:00,
2013-05-26 19:23:00,72.3,55.7,30.22,SW,232,0.0,0.0,56,0.00,CLR,,0.00,WeatherDisplay:10.37,2013-05-27 00:23:00,
2013-05-26 19:28:00,72.0,56.4,30.22,SW,232,0.0,0.0,58,0.00,CLR,,0.00,WeatherDisplay:10.37,2013-05-27 00:28:00,
2013-05-26 19:33:00,71.5,55.9,30.22,SW,232,0.0,0.0,58,0.00,CLR,,0.00,WeatherDisplay:10.37,2013-05-27 00:33:00,
2013-05-26 19:38:00,71.1,55.6,30.23,SW,232,0.0,0.0,58,0.00,CLR,,0.00,WeatherDisplay:10.37,2013-05-27 00:38:00,
2013-05-26 19:43:00,70.6,55.6,30.23,SW,232,0.0,0.0,59,0.00,CLR,,0.00,WeatherDisplay:10.37,2013-05-27 00:43:00,
2013-05-26 19:48:00,70.3,55.8,30.23,SW,232,0.0,0.0,60,0.00,CLR,,0.00,WeatherDisplay:10.37,2013-05-27 00:48:00,
2013-05-26 19:53:00,69.8,55.7,30.23,SW,232,0.0,0.0,61,0.00,CLR,,0.00,WeatherDisplay:10.37,2013-05-27 00:53:00,
2013-05-26 19:58:00,69.3,56.2,30.24,SW,232,0.0,0.0,63,0.00,CLR,,0.00,WeatherDisplay:10.37,2013-05-27 00:58:00,
2013-05-26 20:03:00,68.9,55.8,30.23,SW,232,0.0,0.0,63,0.00,CLR,,0.00,WeatherDisplay:10.37,2013-05-27 01:03:00,
2013-05-26 20:08:00,68.4,55.3,30.23,SW,232,0.0,0.0,63,0.00,CLR,,0.00,WeatherDisplay:10.37,2013-05-27 01:08:00,
2013-05-26 20:13:00,68.1,55.0,30.23,SW,232,0.0,0.0,63,0.00,CLR,,0.00,WeatherDisplay:10.37,2013-05-27 01:13:00,
2013-05-26 20:18:00,67.9,55.3,30.23,SW,232,0.0,0.0,64,0.00,CLR,,0.00,WeatherDisplay:10.37,2013-05-27 01:18:00,
2013-05-26 20:23:00,67.4,55.2,30.23,SW,232,0.0,0.0,65,0.00,CLR,,0.00,WeatherDisplay:10.37,2013-05-27 01:23:00,
2013-05-26 20:28:00,67.1,54.9,30.23,SW,232,0.0,0.0,65,0.00,CLR,,0.00,WeatherDisplay:10.37,2013-05-27 01:28:00,
2013-05-26 20:33:00,66.8,55.1,30.24,SW,232,0.0,0.0,66,0.00,CLR,,0.00,WeatherDisplay:10.37,2013-05-27 01:33:00,
2013-05-26 20:38:00,66.4,55.1,30.24,SW,232,0.0,0.0,67,0.00,CLR,,0.00,WeatherDisplay:10.37,2013-05-27 01:38:00,
2013-05-26 20:43:00,66.3,55.4,30.24,SW,232,0.0,0.0,68,0.00,CLR,,0.00,WeatherDisplay:10.37,2013-05-27 01:43:00,
2013-05-26 20:48:00,66.0,55.1,30.24,SW,232,0.0,0.0,68,0.00,CLR,,0.00,WeatherDisplay:10.37,2013-05-27 01:48:00,
2013-05-26 20:53:00,65.8,54.9,30.24,SW,232,0.0,0.0,68,0.00,CLR,,0.00,WeatherDisplay:10.37,2013-05-27 01:53:00,
2013-05-26 20:58:00,65.8,54.9,30.24,SW,232,0.0,0.0,68,0.00,CLR,,0.00,WeatherDisplay:10.37,2013-05-27 01:58:00,
2013-05-26 21:03:00,65.6,55.2,30.24,SW,232,0.0,0.0,69,0.00,CLR,,0.00,WeatherDisplay:10.37,2013-05-27 02:03:00,
2013-05-26 21:08:00,65.5,55.1,30.24,SW,232,0.0,0.0,69,0.00,CLR,,0.00,WeatherDisplay:10.37,2013-05-27 02:08:00,
2013-05-26 21:13:00,65.3,55.3,30.24,SW,232,0.0,0.0,70,0.00,CLR,,0.00,WeatherDisplay:10.37,2013-05-27 02:13:00,
2013-05-26 21:18:00,65.2,55.2,30.24,SW,232,0.0,0.0,70,0.00,CLR,,0.00,WeatherDisplay:10.37,2013-05-27 02:18:00,
2013-05-26 21:23:00,64.8,54.8,30.25,SW,232,0.0,0.0,70,0.00,CLR,,0.00,WeatherDisplay:10.37,2013-05-27 02:23:00,
2013-05-26 21:28:00,64.7,55.1,30.25,SW,232,0.0,0.0,71,0.00,CLR,,0.00,WeatherDisplay:10.37,2013-05-27 02:28:00,
2013-05-26 21:33:00,64.3,55.1,30.25,SW,232,0.0,0.0,72,0.00,CLR,,0.00,WeatherDisplay:10.37,2013-05-27 02:33:00,
2013-05-26 21:38:00,64.2,55.0,30.25,SW,232,0.0,0.0,72,0.00,CLR,,0.00,WeatherDisplay:10.37,2013-05-27 02:38:00,
2013-05-26 21:43:00,63.9,55.1,30.25,SW,232,0.0,0.0,73,0.00,CLR,,0.00,WeatherDisplay:10.37,2013-05-27 02:43:00,
2013-05-26 21:48:00,63.7,55.3,30.25,SW,232,0.0,0.0,74,0.00,CLR,,0.00,WeatherDisplay:10.37,2013-05-27 02:48:00,
2013-05-26 21:53:00,63.5,55.1,30.25,SW,232,0.0,0.0,74,0.00,CLR,,0.00,WeatherDisplay:10.37,2013-05-27 02:53:00,
2013-05-26 21:58:00,63.2,55.1,30.26,SW,232,0.0,0.0,75,0.00,CLR,,0.00,WeatherDisplay:10.37,2013-05-27 02:58:00,
2013-05-26 22:03:00,63.1,55.0,30.26,SW,232,0.0,0.0,75,0.00,CLR,,0.00,WeatherDisplay:10.37,2013-05-27 03:03:00,
2013-05-26 22:08:00,62.9,55.2,30.26,SW,232,0.0,0.0,76,0.00,CLR,,0.00,WeatherDisplay:10.37,2013-05-27 03:08:00,
2013-05-26 22:13:00,62.6,54.9,30.26,SW,232,0.0,0.0,76,0.00,CLR,,0.00,WeatherDisplay:10.37,2013-05-27 03:13:00,
2013-05-26 22:18:00,62.4,55.1,30.26,SW,232,0.0,0.0,77,0.00,CLR,,0.00,WeatherDisplay:10.37,2013-05-27 03:18:00,
2013-05-26 22:23:00,62.3,55.0,30.26,SW,232,0.0,0.0,77,0.00,CLR,,0.00,WeatherDisplay:10.37,2013-05-27 03:23:00,
2013-05-26 22:28:00,62.1,55.2,30.26,SW,232,0.0,0.0,78,0.00,CLR,,0.00,WeatherDisplay:10.37,2013-05-27 03:28:00,
2013-05-26 22:33:00,62.0,55.1,30.26,SW,232,0.0,0.0,78,0.00,CLR,,0.00,WeatherDisplay:10.37,2013-05-27 03:33:00,
2013-05-26 22:38:00,61.8,55.2,30.26,SW,232,0.0,0.0,79,0.00,CLR,,0.00,WeatherDisplay:10.37,2013-05-27 03:38:00,
2013-05-26 22:43:00,61.6,55.0,30.26,SW,232,0.0,0.0,79,0.00,CLR,,0.00,WeatherDisplay:10.37,2013-05-27 03:43:00,
2013-05-26 22:48:00,61.5,55.3,30.26,SW,232,0.0,0.0,80,0.00,CLR,,0.00,WeatherDisplay:10.37,2013-05-27 03:48:00,
2013-05-26 22:53:00,61.3,55.1,30.26,SW,232,0.0,0.0,80,0.00,CLR,,0.00,WeatherDisplay:10.37,2013-05-27 03:53:00,
2013-05-26 22:58:00,61.2,55.0,30.26,SW,232,0.0,0.0,80,0.00,CLR,,0.00,WeatherDisplay:10.37,2013-05-27 03:58:00,
2013-05-26 23:01:00,61.0,54.8,30.26,SW,232,0.0,0.0,80,0.00,CLR,,0.00,WeatherDisplay:10.37,2013-05-27 04:01:00,
2013-05-26 23:06:00,60.9,55.0,30.26,SW,232,0.0,0.0,81,0.00,CLR,,0.00,WeatherDisplay:10.37,2013-05-27 04:06:00,
2013-05-26 23:10:00,77.7,58.1,30.25,South,180,0.0,1.0,51,0.00,CLR,,0.00,WeatherDisplay:10.37,2013-05-27 04:10:00,
2013-05-26 23:11:00,60.7,54.8,30.26,SW,232,0.0,0.0,81,0.00,CLR,,0.00,WeatherDisplay:10.37,2013-05-27 04:11:00,
2013-05-26 23:16:00,60.5,55.0,30.26,SW,232,0.0,0.0,82,0.00,CLR,,0.00,WeatherDisplay:10.37,2013-05-27 04:16:00,
2013-05-26 23:20:00,77.9,59.9,30.25,South,180,0.0,1.0,54,0.00,CLR,,0.00,WeatherDisplay:10.37,2013-05-27 04:20:00,
2013-05-26 23:21:00,60.4,54.9,30.26,SW,232,0.0,0.0,82,0.00,CLR,,0.00,WeatherDisplay:10.37,2013-05-27 04:21:00,
2013-05-26 23:25:00,77.7,59.7,30.25,South,180,0.0,0.0,54,0.00,CLR,,0.00,WeatherDisplay:10.37,2013-05-27 04:25:00,
2013-05-26 23:26:00,60.2,55.0,30.26,SW,232,0.0,0.0,83,0.00,CLR,,0.00,WeatherDisplay:10.37,2013-05-27 04:26:00,
2013-05-26 23:30:00,77.7,59.7,30.25,South,180,0.0,1.0,54,0.00,CLR,,0.00,WeatherDisplay:10.37,2013-05-27 04:30:00,
2013-05-26 23:31:00,60.1,54.9,30.25,SW,232,0.0,0.0,83,0.00,CLR,,0.00,WeatherDisplay:10.37,2013-05-27 04:31:00,
2013-05-26 23:35:00,78.1,60.1,30.25,South,180,0.0,1.0,54,0.00,CLR,,0.00,WeatherDisplay:10.37,2013-05-27 04:35:00,
2013-05-26 23:36:00,59.9,54.7,30.25,SW,232,0.0,0.0,83,0.00,CLR,,0.00,WeatherDisplay:10.37,2013-05-27 04:36:00,
2013-05-26 23:40:00,78.5,58.9,30.25,South,180,0.0,1.0,51,0.00,CLR,,0.00,WeatherDisplay:10.37,2013-05-27 04:40:00,
2013-05-26 23:41:00,59.9,55.1,30.25,SW,232,0.0,0.0,84,0.00,CLR,,0.00,WeatherDisplay:10.37,2013-05-27 04:41:00,
2013-05-26 23:45:00,78.8,61.3,30.25,South,180,0.0,1.0,55,0.00,CLR,,0.00,WeatherDisplay:10.37,2013-05-27 04:45:00,
2013-05-26 23:46:00,59.8,55.0,30.25,SW,232,0.0,0.0,84,0.00,CLR,,0.00,WeatherDisplay:10.37,2013-05-27 04:46:00,
2013-05-26 23:50:00,79.6,61.0,30.24,South,180,0.0,1.0,53,0.00,CLR,,0.00,WeatherDisplay:10.37,2013-05-27 04:50:00,
2013-05-26 23:51:00,59.6,54.8,30.25,SW,232,0.0,0.0,84,0.00,CLR,,0.00,WeatherDisplay:10.37,2013-05-27 04:51:00,
2013-05-26 23:55:00,79.4,60.8,30.24,South,180,0.0,3.0,53,0.00,CLR,,0.00,WeatherDisplay:10.37,2013-05-27 04:55:00,
2013-05-26 23:56:00,59.5,55.0,30.25,SW,232,0.0,0.0,85,0.00,CLR,,0.00,WeatherDisplay:10.37,2013-05-27 04:56:00,